B9406 ZGGG-ZJSY

Flight info

Callsign B9406
Flight time 1h 5m
Altitude 27600
Route K0807S1160 VIBOS2 VIBOS R473 ZUH R200 BIGRO G221 WL DCT
Aircraft E190/M-SDE1E2E3FGHIJ3J4J7P2RWXY/LB1D1G1

Departure

Time 2026-05-07 14:47
Airport Guangzhou Baiyun International Airport (ZGGG)

Arrival

Time 2026-05-07 15:52
Airport Sanya Phoenix International Airport (ZJSY)
Time Latitude Longitude Altitude Speed Heading
2026-05-07 14:29 23.38505 113.30287 53 ft 0 kts 52°
2026-05-07 14:33 23.38499 113.30278 53 ft 2 kts 52°
2026-05-07 14:33 23.38490 113.30265 53 ft 2 kts 52°
2026-05-07 14:34 23.38481 113.30253 53 ft 2 kts 52°
2026-05-07 14:34 23.38473 113.30240 53 ft 1 kts 79°
2026-05-07 14:34 23.38476 113.30227 53 ft 1 kts 131°
2026-05-07 14:34 23.38480 113.30223 53 ft 1 kts 148°
2026-05-07 14:35 23.38484 113.30220 53 ft 0 kts 143°
2026-05-07 14:36 23.38483 113.30221 53 ft 0 kts 143°
2026-05-07 14:36 23.38481 113.30222 53 ft 0 kts 143°
2026-05-07 14:36 23.38479 113.30225 53 ft 0 kts 143°
2026-05-07 14:37 23.38477 113.30226 53 ft 0 kts 143°
2026-05-07 14:37 23.38472 113.30230 53 ft 0 kts 143°
2026-05-07 14:37 23.38470 113.30231 53 ft 0 kts 143°
2026-05-07 14:38 23.38467 113.30234 53 ft 0 kts 143°
2026-05-07 14:38 23.38465 113.30235 53 ft 0 kts 143°
2026-05-07 14:38 23.38458 113.30241 53 ft 3 kts 143°
2026-05-07 14:38 23.38422 113.30272 52 ft 9 kts 139°
2026-05-07 14:39 23.38387 113.30348 53 ft 12 kts 104°
2026-05-07 14:39 23.38367 113.30437 53 ft 11 kts 105°
2026-05-07 14:39 23.38366 113.30527 53 ft 14 kts 52°
2026-05-07 14:39 23.38468 113.30572 52 ft 16 kts 13°
2026-05-07 14:40 23.38580 113.30602 53 ft 16 kts 13°
2026-05-07 14:40 23.38689 113.30630 53 ft 15 kts 13°
2026-05-07 14:40 23.38793 113.30658 52 ft 15 kts 14°
2026-05-07 14:40 23.38896 113.30688 53 ft 15 kts 14°
2026-05-07 14:41 23.39006 113.30717 53 ft 17 kts 13°
2026-05-07 14:41 23.39131 113.30750 53 ft 19 kts 13°
2026-05-07 14:41 23.39266 113.30788 52 ft 20 kts 15°
2026-05-07 14:41 23.39400 113.30824 53 ft 19 kts 12°
2026-05-07 14:42 23.39531 113.30857 53 ft 19 kts 15°
2026-05-07 14:42 23.39656 113.30892 53 ft 18 kts 12°
2026-05-07 14:42 23.39776 113.30931 53 ft 17 kts 12°
2026-05-07 14:42 23.39895 113.30956 53 ft 17 kts 12°
2026-05-07 14:43 23.40007 113.30984 53 ft 16 kts 18°
2026-05-07 14:43 23.40116 113.31016 53 ft 15 kts 13°
2026-05-07 14:43 23.40221 113.31042 52 ft 15 kts 14°
2026-05-07 14:43 23.40321 113.31072 52 ft 14 kts 16°
2026-05-07 14:44 23.40419 113.31098 52 ft 14 kts 13°
2026-05-07 14:44 23.40512 113.31126 53 ft 13 kts 15°
2026-05-07 14:44 23.40602 113.31150 53 ft 13 kts 11°
2026-05-07 14:44 23.40691 113.31169 53 ft 12 kts 12°
2026-05-07 14:45 23.40775 113.31192 53 ft 12 kts 15°
2026-05-07 14:45 23.40855 113.31216 53 ft 11 kts 15°
2026-05-07 14:45 23.40912 113.31256 52 ft 9 kts 72°
2026-05-07 14:45 23.40907 113.31322 53 ft 8 kts 101°
2026-05-07 14:46 23.40893 113.31381 53 ft 7 kts 109°
2026-05-07 14:46 23.40856 113.31416 53 ft 7 kts 176°
2026-05-07 14:46 23.40808 113.31406 52 ft 7 kts 193°
2026-05-07 14:46 23.40633 113.31358 53 ft 61 kts 194°
2026-05-07 14:47 23.39976 113.31184 53 ft 132 kts 194°
2026-05-07 14:47 23.38891 113.30887 131 ft 180 kts 194°
2026-05-07 14:47 23.37699 113.30575 865 ft 180 kts 194°
2026-05-07 14:47 23.36380 113.30221 1045 ft 219 kts 195°
2026-05-07 14:48 23.34875 113.29807 1735 ft 217 kts 195°
2026-05-07 14:48 23.33557 113.29448 2861 ft 193 kts 195°
2026-05-07 14:48 23.32292 113.29104 3473 ft 184 kts 195°
2026-05-07 14:48 23.31058 113.28768 4040 ft 185 kts 196°
2026-05-07 14:49 23.29787 113.28423 4466 ft 193 kts 196°
2026-05-07 14:49 23.28507 113.28076 5002 ft 193 kts 196°
2026-05-07 14:49 23.27191 113.27688 5448 ft 200 kts 200°
2026-05-07 14:49 23.25810 113.27209 5651 ft 221 kts 199°
2026-05-07 14:50 23.24323 113.26695 6188 ft 225 kts 200°
2026-05-07 14:50 23.22836 113.26179 6611 ft 237 kts 200°
2026-05-07 14:50 23.21174 113.25600 6734 ft 261 kts 199°
2026-05-07 14:50 23.19373 113.24974 6889 ft 284 kts 199°
2026-05-07 14:51 23.17439 113.24302 7087 ft 304 kts 199°
2026-05-07 14:51 23.15371 113.23583 7290 ft 323 kts 199°
2026-05-07 14:51 23.13149 113.22812 7599 ft 337 kts 199°
2026-05-07 14:51 23.10899 113.22031 8349 ft 347 kts 199°
2026-05-07 14:52 23.08614 113.21237 9365 ft 349 kts 199°
2026-05-07 14:52 23.06300 113.20434 10208 ft 356 kts 199°
2026-05-07 14:52 23.03907 113.19624 10735 ft 373 kts 195°
2026-05-07 14:52 23.01232 113.19501 11123 ft 393 kts 170°
2026-05-07 14:53 22.98633 113.20280 12157 ft 392 kts 163°
2026-05-07 14:53 22.96036 113.21146 13090 ft 394 kts 162°
2026-05-07 14:53 22.93399 113.22052 13747 ft 402 kts 162°
2026-05-07 14:53 22.90741 113.22973 14517 ft 406 kts 162°
2026-05-07 14:54 22.88049 113.23907 15293 ft 410 kts 162°
2026-05-07 14:54 22.85324 113.24852 15998 ft 414 kts 162°
2026-05-07 14:54 22.82590 113.25800 16671 ft 418 kts 162°
2026-05-07 14:54 22.79822 113.26760 17330 ft 422 kts 162°
2026-05-07 14:55 22.77029 113.27728 17967 ft 426 kts 162°
2026-05-07 14:55 22.74183 113.28714 18584 ft 430 kts 162°
2026-05-07 14:55 22.71321 113.29706 19174 ft 434 kts 162°
2026-05-07 14:55 22.68470 113.30693 19744 ft 437 kts 162°
2026-05-07 14:56 22.65561 113.31699 20302 ft 441 kts 162°
2026-05-07 14:56 22.62641 113.32709 20836 ft 444 kts 162°
2026-05-07 14:56 22.59680 113.33733 21360 ft 448 kts 162°
2026-05-07 14:56 22.56714 113.34759 21862 ft 451 kts 162°
2026-05-07 14:57 22.53742 113.35786 22344 ft 454 kts 162°
2026-05-07 14:57 22.50738 113.36822 22813 ft 457 kts 162°
2026-05-07 14:57 22.47701 113.37872 23271 ft 460 kts 162°
2026-05-07 14:57 22.44632 113.38930 23715 ft 463 kts 162°
2026-05-07 14:58 22.41579 113.39983 24140 ft 466 kts 162°
2026-05-07 14:58 22.38516 113.41039 24552 ft 468 kts 162°
2026-05-07 14:58 22.35410 113.42109 24954 ft 471 kts 162°
2026-05-07 14:58 22.32255 113.43195 25347 ft 474 kts 162°
2026-05-07 14:59 22.29086 113.44055 25633 ft 478 kts 173°
2026-05-07 14:59 22.25775 113.43851 25759 ft 485 kts 193°
2026-05-07 14:59 22.22714 113.42423 26158 ft 482 kts 214°
2026-05-07 14:59 22.20167 113.40080 26703 ft 478 kts 229°
2026-05-07 15:00 22.18426 113.37093 26892 ft 479 kts 248°
2026-05-07 15:00 22.17319 113.33678 27270 ft 479 kts 250°
2026-05-07 15:00 22.16108 113.30321 27675 ft 480 kts 249°
2026-05-07 15:00 22.14872 113.26970 27584 ft 485 kts 249°
2026-05-07 15:01 22.13604 113.23620 27622 ft 485 kts 247°
2026-05-07 15:01 22.12232 113.20313 27619 ft 485 kts 247°
2026-05-07 15:01 22.10852 113.16988 27624 ft 485 kts 247°
2026-05-07 15:01 22.09476 113.13681 27620 ft 485 kts 247°
2026-05-07 15:02 22.08102 113.10377 27623 ft 485 kts 247°
2026-05-07 15:02 22.06723 113.07066 27621 ft 485 kts 247°
2026-05-07 15:02 22.05350 113.03770 27623 ft 485 kts 247°
2026-05-07 15:02 22.03965 113.00442 27621 ft 485 kts 247°
2026-05-07 15:03 22.02656 112.97113 27623 ft 486 kts 248°
2026-05-07 15:03 22.01351 112.93766 27622 ft 487 kts 248°
2026-05-07 15:03 22.00034 112.90385 27623 ft 488 kts 248°
2026-05-07 15:03 21.98719 112.87014 27622 ft 489 kts 248°
2026-05-07 15:04 21.97409 112.83657 27623 ft 490 kts 248°
2026-05-07 15:04 21.96074 112.80298 27622 ft 491 kts 247°
2026-05-07 15:04 21.94709 112.76905 27623 ft 491 kts 247°
2026-05-07 15:04 21.93365 112.73570 27622 ft 491 kts 247°
2026-05-07 15:05 21.92004 112.70197 27623 ft 491 kts 247°
2026-05-07 15:05 21.90648 112.66836 27623 ft 491 kts 247°
2026-05-07 15:05 21.89292 112.63481 27621 ft 491 kts 247°
2026-05-07 15:05 21.87930 112.60111 27620 ft 491 kts 247°
2026-05-07 15:06 21.86575 112.56761 27621 ft 491 kts 247°
2026-05-07 15:06 21.85224 112.53393 27620 ft 490 kts 248°
2026-05-07 15:06 21.83885 112.50014 27621 ft 491 kts 248°
2026-05-07 15:06 21.82545 112.46637 27621 ft 491 kts 248°
2026-05-07 15:07 21.81212 112.43278 27621 ft 491 kts 248°
2026-05-07 15:07 21.79877 112.39917 27621 ft 491 kts 248°
2026-05-07 15:07 21.78549 112.36575 27621 ft 491 kts 248°
2026-05-07 15:07 21.77209 112.33205 27620 ft 491 kts 247°
2026-05-07 15:08 21.75864 112.29823 27619 ft 491 kts 247°
2026-05-07 15:08 21.74526 112.26465 27620 ft 491 kts 247°
2026-05-07 15:08 21.73170 112.23061 27620 ft 491 kts 247°
2026-05-07 15:08 21.71838 112.19723 27620 ft 491 kts 247°
2026-05-07 15:09 21.70497 112.16361 27620 ft 491 kts 247°
2026-05-07 15:09 21.69154 112.12998 27620 ft 491 kts 247°
2026-05-07 15:09 21.67810 112.09634 27620 ft 491 kts 247°
2026-05-07 15:09 21.66464 112.06269 27620 ft 491 kts 247°
2026-05-07 15:10 21.65119 112.02907 27620 ft 491 kts 247°
2026-05-07 15:10 21.63776 111.99554 27620 ft 491 kts 247°
2026-05-07 15:10 21.62430 111.96195 27620 ft 491 kts 247°
2026-05-07 15:10 21.61083 111.92834 27620 ft 491 kts 247°
2026-05-07 15:11 21.59732 111.89469 27621 ft 491 kts 247°
2026-05-07 15:11 21.58364 111.86102 27617 ft 491 kts 245°
2026-05-07 15:11 21.56812 111.82876 27623 ft 491 kts 241°
2026-05-07 15:11 21.54892 111.79833 27603 ft 492 kts 232°
2026-05-07 15:12 21.52616 111.77075 27629 ft 492 kts 229°
2026-05-07 15:12 21.50391 111.74327 27596 ft 492 kts 230°
2026-05-07 15:12 21.48170 111.71542 27602 ft 492 kts 230°
2026-05-07 15:12 21.45958 111.68761 27587 ft 492 kts 230°
2026-05-07 15:13 21.43736 111.65967 27586 ft 492 kts 230°
2026-05-07 15:13 21.41528 111.63193 27576 ft 492 kts 230°
2026-05-07 15:13 21.39300 111.60394 27572 ft 492 kts 230°
2026-05-07 15:13 21.37095 111.57626 27567 ft 492 kts 230°
2026-05-07 15:14 21.34873 111.54837 27568 ft 492 kts 230°
2026-05-07 15:14 21.32651 111.52052 27568 ft 492 kts 230°
2026-05-07 15:14 21.30426 111.49262 27568 ft 492 kts 230°
2026-05-07 15:14 21.28209 111.46484 27568 ft 492 kts 230°
2026-05-07 15:15 21.25978 111.43690 27568 ft 492 kts 230°
2026-05-07 15:15 21.23747 111.40897 27568 ft 492 kts 230°
2026-05-07 15:15 21.21549 111.38148 27569 ft 492 kts 230°
2026-05-07 15:15 21.19307 111.35345 27569 ft 492 kts 230°
2026-05-07 15:16 21.17076 111.32557 27567 ft 492 kts 230°
2026-05-07 15:16 21.14857 111.29785 27567 ft 492 kts 230°
2026-05-07 15:16 21.12629 111.27003 27567 ft 492 kts 230°
2026-05-07 15:16 21.10413 111.24239 27567 ft 493 kts 229°
2026-05-07 15:17 21.08178 111.21451 27567 ft 493 kts 229°
2026-05-07 15:17 21.05971 111.18700 27568 ft 493 kts 229°
2026-05-07 15:17 21.03744 111.15925 27568 ft 494 kts 229°
2026-05-07 15:17 21.01485 111.13112 27568 ft 494 kts 229°
2026-05-07 15:18 20.99254 111.10335 27568 ft 495 kts 229°
2026-05-07 15:18 20.97035 111.07575 27568 ft 496 kts 229°
2026-05-07 15:18 20.94781 111.04765 27568 ft 497 kts 230°
2026-05-07 15:18 20.92543 111.01959 27569 ft 498 kts 230°
2026-05-07 15:19 20.90315 110.99167 27569 ft 499 kts 230°
2026-05-07 15:19 20.88057 110.96338 27565 ft 500 kts 230°
2026-05-07 15:19 20.85796 110.93507 27566 ft 500 kts 230°
2026-05-07 15:19 20.83534 110.90677 27565 ft 501 kts 230°
2026-05-07 15:20 20.81286 110.87865 27566 ft 502 kts 230°
2026-05-07 15:20 20.79024 110.85037 27566 ft 502 kts 230°
2026-05-07 15:20 20.76746 110.82192 27566 ft 502 kts 230°
2026-05-07 15:20 20.74493 110.79378 27566 ft 502 kts 230°
2026-05-07 15:21 20.72222 110.76543 27566 ft 502 kts 230°
2026-05-07 15:21 20.69958 110.73717 27567 ft 502 kts 230°
2026-05-07 15:21 20.67659 110.70850 27567 ft 502 kts 230°
2026-05-07 15:21 20.65391 110.68024 27567 ft 502 kts 230°
2026-05-07 15:22 20.63144 110.65225 27567 ft 502 kts 230°
2026-05-07 15:22 20.60882 110.62408 27568 ft 502 kts 230°
2026-05-07 15:22 20.58613 110.59586 27568 ft 502 kts 230°
2026-05-07 15:22 20.56334 110.56750 27569 ft 502 kts 230°
2026-05-07 15:23 20.54075 110.53942 27600 ft 502 kts 230°
2026-05-07 15:23 20.51735 110.51163 27577 ft 502 kts 226°
2026-05-07 15:23 20.49196 110.48632 27591 ft 502 kts 219°
2026-05-07 15:23 20.46369 110.46465 27607 ft 502 kts 214°
2026-05-07 15:24 20.43479 110.44348 27592 ft 503 kts 214°
2026-05-07 15:24 20.40631 110.42260 27600 ft 502 kts 214°
2026-05-07 15:24 20.37727 110.40132 27594 ft 502 kts 214°
2026-05-07 15:24 20.34857 110.38030 27598 ft 502 kts 214°
2026-05-07 15:25 20.32010 110.35945 27595 ft 502 kts 214°
2026-05-07 15:25 20.29125 110.33835 27595 ft 502 kts 214°
2026-05-07 15:25 20.26271 110.31747 27593 ft 502 kts 214°
2026-05-07 15:25 20.23400 110.29648 27594 ft 502 kts 214°
2026-05-07 15:26 20.20539 110.27557 27594 ft 502 kts 214°
2026-05-07 15:26 20.17625 110.25428 27594 ft 502 kts 214°
2026-05-07 15:26 20.14788 110.23357 27594 ft 502 kts 214°
2026-05-07 15:26 20.11916 110.21261 27595 ft 502 kts 214°
2026-05-07 15:27 20.09026 110.19152 27595 ft 502 kts 214°
2026-05-07 15:27 20.06137 110.17046 27595 ft 502 kts 214°
2026-05-07 15:27 20.03267 110.14974 27591 ft 502 kts 212°
2026-05-07 15:27 20.00258 110.13158 27597 ft 501 kts 206°
2026-05-07 15:28 19.97128 110.11568 27599 ft 502 kts 204°
2026-05-07 15:28 19.93966 110.10027 27595 ft 501 kts 204°
2026-05-07 15:28 19.90773 110.08482 27596 ft 501 kts 204°
2026-05-07 15:28 19.87624 110.06960 27592 ft 501 kts 204°
2026-05-07 15:29 19.84446 110.05426 27592 ft 501 kts 204°
2026-05-07 15:29 19.81280 110.03898 27592 ft 501 kts 204°
2026-05-07 15:29 19.78124 110.02376 27592 ft 501 kts 204°
2026-05-07 15:29 19.74948 110.00845 27592 ft 501 kts 204°
2026-05-07 15:30 19.71774 109.99316 27593 ft 501 kts 204°
2026-05-07 15:30 19.68624 109.97798 27593 ft 501 kts 204°
2026-05-07 15:30 19.65457 109.96273 27593 ft 501 kts 204°
2026-05-07 15:30 19.62275 109.94742 27593 ft 501 kts 204°
2026-05-07 15:31 19.59121 109.93224 27593 ft 501 kts 204°
2026-05-07 15:31 19.55944 109.91697 27594 ft 501 kts 204°
2026-05-07 15:31 19.52771 109.90172 27594 ft 501 kts 204°
2026-05-07 15:31 19.49593 109.88645 27594 ft 501 kts 204°
2026-05-07 15:32 19.46456 109.87138 27594 ft 501 kts 204°
2026-05-07 15:32 19.43259 109.85604 27594 ft 501 kts 204°
2026-05-07 15:32 19.40113 109.84094 27595 ft 501 kts 204°
2026-05-07 15:32 19.36947 109.82581 27595 ft 501 kts 203°
2026-05-07 15:33 19.33792 109.81084 27595 ft 501 kts 203°
2026-05-07 15:33 19.30592 109.79567 27595 ft 501 kts 203°
2026-05-07 15:33 19.27412 109.78059 27595 ft 502 kts 203°
2026-05-07 15:33 19.24262 109.76550 27595 ft 502 kts 204°
2026-05-07 15:34 19.21097 109.74989 27597 ft 502 kts 204°
2026-05-07 15:34 19.17915 109.73418 27596 ft 502 kts 204°
2026-05-07 15:34 19.14740 109.71873 27596 ft 502 kts 204°
2026-05-07 15:34 19.11639 109.70382 27385 ft 489 kts 204°
2026-05-07 15:35 19.08557 109.68901 26457 ft 489 kts 203°
2026-05-07 15:35 19.05458 109.67413 25501 ft 488 kts 203°
2026-05-07 15:35 19.02420 109.65955 24811 ft 482 kts 203°
2026-05-07 15:35 18.99423 109.64517 24147 ft 475 kts 203°
2026-05-07 15:36 18.96426 109.63080 23434 ft 469 kts 202°
2026-05-07 15:36 18.93487 109.61671 22727 ft 463 kts 202°
2026-05-07 15:36 18.90593 109.60284 22028 ft 457 kts 202°
2026-05-07 15:36 18.87742 109.58919 21330 ft 452 kts 202°
2026-05-07 15:37 18.84887 109.57552 20612 ft 447 kts 202°
2026-05-07 15:37 18.82105 109.56220 19891 ft 442 kts 202°
2026-05-07 15:37 18.79299 109.54878 19172 ft 437 kts 201°
2026-05-07 15:37 18.76591 109.53582 18479 ft 433 kts 201°
2026-05-07 15:38 18.73856 109.52275 17775 ft 428 kts 201°
2026-05-07 15:38 18.71166 109.50989 17077 ft 423 kts 201°
2026-05-07 15:38 18.68498 109.49715 16385 ft 419 kts 201°
2026-05-07 15:38 18.65891 109.48469 15707 ft 414 kts 201°
2026-05-07 15:39 18.63279 109.47222 15027 ft 410 kts 201°
2026-05-07 15:39 18.60721 109.46001 14359 ft 405 kts 201°
2026-05-07 15:39 18.58166 109.44782 13689 ft 401 kts 200°
2026-05-07 15:39 18.55678 109.43595 13035 ft 396 kts 200°
2026-05-07 15:40 18.53130 109.42538 12325 ft 388 kts 189°
2026-05-07 15:40 18.50524 109.42461 11487 ft 375 kts 165°
2026-05-07 15:40 18.48199 109.43501 11253 ft 349 kts 146°
2026-05-07 15:40 18.46402 109.45038 10950 ft 333 kts 130°
2026-05-07 15:41 18.44991 109.46937 10121 ft 327 kts 123°
2026-05-07 15:41 18.43722 109.48904 9129 ft 328 kts 122°
2026-05-07 15:41 18.42491 109.50897 9029 ft 327 kts 121°
2026-05-07 15:41 18.41267 109.52904 8940 ft 315 kts 121°
2026-05-07 15:42 18.40113 109.54811 8943 ft 311 kts 121°
2026-05-07 15:42 18.38943 109.56748 8918 ft 307 kts 121°
2026-05-07 15:42 18.37808 109.58629 7971 ft 312 kts 121°
2026-05-07 15:42 18.36649 109.60550 6963 ft 316 kts 121°
2026-05-07 15:43 18.35539 109.62533 5984 ft 317 kts 112°
2026-05-07 15:43 18.35140 109.63615 5515 ft 316 kts 110°
2026-05-07 15:43 18.34519 109.65248 4898 ft 314 kts 109°
2026-05-07 15:43 18.34097 109.67484 3997 ft 312 kts 92°
2026-05-07 15:44 18.34136 109.69730 3194 ft 308 kts 86°
2026-05-07 15:44 18.34325 109.71959 2367 ft 306 kts 84°
2026-05-07 15:44 18.34524 109.74159 1949 ft 302 kts 90°
2026-05-07 15:44 18.33946 109.76347 1989 ft 308 kts 120°
2026-05-07 15:45 18.32494 109.77843 1901 ft 287 kts 152°
2026-05-07 15:45 18.30649 109.78222 1920 ft 263 kts 186°
2026-05-07 15:45 18.29078 109.77441 1928 ft 240 kts 226°
2026-05-07 15:45 18.28422 109.75947 1956 ft 223 kts 270°
2026-05-07 15:46 18.29394 109.72849 1946 ft 228 kts 294°
2026-05-07 15:46 18.29992 109.71304 1972 ft 228 kts 294°
2026-05-07 15:46 18.30592 109.69753 1956 ft 229 kts 294°
2026-05-07 15:47 18.31181 109.68231 1954 ft 219 kts 294°
2026-05-07 15:47 18.31727 109.66819 1978 ft 196 kts 294°
2026-05-07 15:47 18.32211 109.65559 1869 ft 181 kts 292°
2026-05-07 15:47 18.32539 109.64292 1551 ft 179 kts 280°
2026-05-07 15:48 18.32668 109.62989 1221 ft 176 kts 273°
2026-05-07 15:48 18.32680 109.61717 948 ft 171 kts 269°
2026-05-07 15:48 18.32631 109.60500 885 ft 161 kts 268°
2026-05-07 15:48 18.32524 109.59346 706 ft 156 kts 260°
2026-05-07 15:49 18.32354 109.58191 652 ft 170 kts 263°
2026-05-07 15:49 18.32186 109.56961 912 ft 174 kts 263°
2026-05-07 15:49 18.32033 109.55669 941 ft 176 kts 265°
2026-05-07 15:49 18.31928 109.54444 1065 ft 164 kts 265°
2026-05-07 15:50 18.31766 109.53248 958 ft 167 kts 262°
2026-05-07 15:50 18.31666 109.52049 954 ft 161 kts 265°
2026-05-07 15:50 18.31535 109.50884 936 ft 154 kts 263°
2026-05-07 15:50 18.31402 109.49810 806 ft 145 kts 264°
2026-05-07 15:51 18.31267 109.48724 744 ft 156 kts 262°
2026-05-07 15:51 18.31117 109.47556 881 ft 163 kts 263°
2026-05-07 15:51 18.30937 109.46371 815 ft 166 kts 259°
2026-05-07 15:51 18.30772 109.45161 675 ft 167 kts 264°
2026-05-07 15:52 18.30646 109.43940 326 ft 178 kts 263°
2026-05-07 15:52 18.30479 109.42703 228 ft 158 kts 264°
2026-05-07 15:52 18.30353 109.41688 99 ft 109 kts 261°
2026-05-07 15:52 18.30361 109.41286 99 ft 26 kts 359°
2026-05-07 15:53 18.30474 109.41248 99 ft 15 kts 278°
2026-05-07 15:53 18.30460 109.41141 99 ft 14 kts 263°
2026-05-07 15:53 18.30445 109.41038 99 ft 14 kts 261°
2026-05-07 15:53 18.30429 109.40936 99 ft 13 kts 263°
2026-05-07 15:54 18.30429 109.40840 99 ft 12 kts 303°
2026-05-07 15:54 18.30511 109.40815 99 ft 12 kts 353°
2026-05-07 15:54 18.30594 109.40803 99 ft 11 kts 353°
2026-05-07 15:54 18.30676 109.40791 99 ft 11 kts 345°
2026-05-07 15:55 18.30724 109.40736 99 ft 10 kts 265°
2026-05-07 15:55 18.30712 109.40660 99 ft 10 kts 246°
2026-05-07 15:55 18.30665 109.40650 99 ft 5 kts 148°
2026-05-07 15:55 18.30655 109.40688 99 ft 5 kts 88°
2026-05-07 15:56 18.30658 109.40719 99 ft 1 kts 84°
2026-05-07 15:56 18.30658 109.40722 99 ft 0 kts 83°
2026-05-07 15:56 18.30658 109.40726 99 ft 0 kts 83°